Weather Roundup
Issued by NWS Chicago, IL

Home | Current Version | Previous Version | Text Only | Print | Product List | Glossary On
Versions: 1 2 3 4 5 6 7 8 9 10 11 12 13 14 15 16 17 18 19 20 21 22 23 24 25 26 27 28 29 30 31 32 33 34 35 36 37 38 39 40 41 42 43 44 45 46 47 48 49 50
000
NZUS59 KLOT 030803
HRRLOT

CHICAGO AREA WEATHER ROUNDUP
NATIONAL WEATHER SERVICE CHICAGO/ROMEOVILLE IL
300 AM CDT TUE MAY 03 2016

NOTE: "FAIR" INDICATES FEW OR NO CLOUDS BELOW 12,000 FEET WITH NO
SIGNIFICANT WEATHER AND/OR OBSTRUCTIONS TO VISIBILITY.

* THESE STATIONS ARE NOT UNDER NWS QUALITY CONTROL. THEY ALSO MAY NOT
  REPORT WEATHER SUCH AS PRECIPITATION OR FOG.

ILZ005-006-012>014-019>023-030900-
NORTHEAST ILLINOIS

CITY           SKY/WX    TMP DP  RH WIND       PRES   REMARKS
OHARE          PTCLDY    41  34  76 W5        29.97F
MIDWAY         CLEAR     43  35  73 W3        29.98F
AURORA         CLEAR     36  34  92 NW5       29.99F
LANSING*       CLEAR     39  36  89 CALM      29.98F
WAUKEGAN       CLEAR     41  35  79 W5        29.97F
DUPAGE AIRPORT CLEAR     40  34  79 CALM      29.98F
WHEELING       CLEAR     41  36  82 CALM      29.99F
$$

WIZ051-052-058>065-066-070>072-030900-
SOUTHEAST WISCONSIN

CITY           SKY/WX    TMP DP  RH WIND       PRES   REMARKS
MILWAUKEE      CLEAR     40  32  73 CALM      29.97F
KENOSHA*       CLEAR     38  33  82 W3        29.98F
RACINE*        CLEAR     43  32  65 W7        29.99F
BURLINGTON     PTCLDY    33  33  98 CALM      29.98F
$$

INZ001>003-010>013-019-020-030900-
NORTHWEST INDIANA

CITY           SKY/WX    TMP DP  RH WIND       PRES   REMARKS
GARY*          NOT AVBL
MICHIGAN CITY* NOT AVBL
RENSSELAER*    NOT AVBL
VALPARAISO     CLOUDY    46  40  79 NW3       29.97F
$$

LMZ740>746-030900-
SOUTHERN LAKE MICHIGAN

STATION/POSITION TIME  SKY/WX   TEMP WIND        PRES    VSBY
                                AIR  DIR/SP/G
                 (UTC)          (F)  (DEG/KT/KT) (MB)    (MI)
HARRISON CRIB    0700            48  290/  7/  8   N/A
BURNHAM HARBOR   0800            47  270/  4/  7   N/A
CALUMET HARBOR   0700            45  210/  2/  3 1015.0F
BURNS HARBOR     0701            46  320/  3/  5 1015.9F
MICHIGAN CITY    0700            44  280/  5/  6   N/A
$$

ABBREVIATIONS USED IN REMARKS
   TC - TEMPERATURE IN CELSIUS
  WCI - WIND CHILL INDEX
   HX - HEAT INDEX
  VSB - VISIBILITY
$$




USA.gov is the U.S. government's official web portal to all federal, state and local government web resources and services.